Theta_e
313 313 313 313 314 315 316 316 316 315 314 315 315 314 312 309 310 315 317 316 318 315 315 317 315 316 317 315 319 321 321 322 322 323 326 324 326 333 333 333 335 335 335 341 340 334 330 331 333 333 333 334 335 334 333 335 336 336 334 335 335 336 336 335 336 335 334 335 334 333 332 332 332 332 332 331 330 329 329 330 331 331 332 332 333 333
314 313 314 314 316 317 317 318 317 317 316 316 315 314 312 311 311 315 317 317 317 316 315 316 315 315 317 317 318 321 322 323 321 322 324 323 324 330 334 333 334 334 336 336 332 330 330 333 333 332 333 334 335 335 333 334 335 336 335 335 335 334 334 335 336 335 334 333 333 331 331 331 332 331 331 329 329 329 329 329 330 330 330 331 331 331
313 314 315 315 317 317 318 319 318 318 317 317 317 314 311 312 313 315 318 318 318 316 315 316 315 315 318 318 318 321 321 323 323 323 324 323 325 329 333 333 331 335 337 332 334 333 332 335 333 331 333 333 334 335 334 334 335 335 335 335 335 334 335 336 336 334 332 331 331 330 330 330 330 330 329 328 327 328 329 329 329 328 328 328 328 328
313 315 316 316 317 318 318 319 320 318 318 318 317 314 311 314 312 310 315 319 318 318 317 318 316 317 320 319 319 320 321 323 323 323 323 322 328 332 331 330 333 339 334 334 337 334 334 336 333 331 332 332 333 335 334 334 334 334 334 334 334 334 336 336 334 332 330 330 331 330 330 330 330 328 326 326 326 326 328 328 328 327 327 326 325 326
315 317 316 315 317 318 318 319 320 318 316 317 317 315 313 314 313 312 316 319 318 319 320 318 315 315 319 318 319 319 322 325 323 324 323 322 330 332 330 336 338 335 334 339 338 332 334 336 333 331 331 331 332 333 333 334 334 333 334 334 334 335 334 334 332 330 329 330 331 330 331 331 329 326 325 324 325 325 326 327 327 327 325 324 323 324
317 319 317 316 317 317 318 319 319 318 315 314 316 317 315 315 316 315 317 317 314 315 319 318 313 313 316 317 319 319 323 325 324 326 324 323 331 327 332 336 334 333 336 343 339 331 334 335 333 332 331 332 332 332 332 333 333 333 333 334 335 334 331 330 330 329 330 332 332 332 331 329 327 327 325 324 324 324 325 326 327 326 325 324 323 324
316 317 318 317 317 317 318 317 318 318 313 311 314 317 316 316 316 315 317 315 311 313 321 321 314 312 314 317 318 321 325 326 325 327 325 325 328 326 335 335 333 333 337 340 335 331 334 335 333 332 332 333 332 332 332 332 333 333 332 333 334 333 332 330 329 329 332 333 332 332 330 328 328 328 325 324 324 325 326 326 326 325 325 325 324 323
316 317 317 318 318 317 316 315 315 316 312 311 315 317 315 315 316 316 316 314 313 316 320 320 316 312 311 314 319 320 324 328 327 328 329 326 329 334 337 334 332 332 334 335 332 332 334 335 335 333 333 332 332 333 333 333 334 332 330 333 334 333 332 331 329 330 333 333 332 331 328 328 329 328 326 324 325 325 326 325 326 325 324 324 323 322
317 317 317 317 317 316 316 315 315 316 314 313 315 317 316 315 316 317 316 314 315 317 314 315 317 314 310 313 319 321 322 327 327 328 329 326 335 338 334 333 333 332 332 332 333 333 334 335 336 335 334 333 333 334 334 335 334 332 331 333 333 332 332 332 331 332 333 332 331 330 329 329 329 327 326 325 325 325 324 324 325 325 324 323 321 320
317 315 316 316 315 315 315 315 315 315 316 316 316 317 318 317 315 317 317 314 315 316 313 314 315 314 312 312 318 319 320 325 325 326 327 326 336 336 334 333 333 332 332 333 332 333 335 335 336 336 335 334 334 334 335 335 335 334 333 332 330 330 331 331 331 333 333 331 330 330 330 330 328 326 324 325 325 324 324 324 323 324 323 322 320 319
316 315 315 315 315 315 315 315 315 315 316 316 315 316 317 318 316 316 316 313 314 315 313 313 315 317 315 313 316 320 320 324 325 327 326 326 334 334 333 332 332 331 333 334 333 334 336 335 336 337 336 335 334 334 334 334 334 334 333 332 331 330 330 328 329 332 332 330 327 329 329 329 327 325 324 325 325 325 324 323 322 322 323 322 320 319
314 315 316 315 315 315 315 316 317 317 316 316 317 317 316 315 315 313 312 313 314 314 313 313 314 316 315 315 319 324 324 325 328 330 329 328 334 334 333 333 333 332 334 335 334 335 336 336 335 336 336 336 334 333 333 333 333 333 332 332 332 331 329 328 329 330 329 327 326 327 328 327 325 324 325 325 325 324 324 323 323 322 321 320 319 318
313 314 315 315 315 314 314 315 317 318 316 316 316 315 314 313 314 313 312 313 314 313 313 314 315 316 316 318 325 328 326 325 327 330 331 330 334 335 333 332 333 333 334 336 335 335 336 335 335 336 336 336 335 334 334 333 333 333 333 332 332 332 331 331 330 326 324 325 327 328 328 327 326 325 325 325 324 324 324 323 323 322 320 319 319 318
312 313 314 315 315 315 316 315 314 315 316 315 313 313 313 314 315 316 314 313 313 312 312 314 316 316 318 321 326 328 327 329 327 327 330 329 331 334 333 332 333 334 336 336 335 335 336 335 335 336 336 336 336 335 334 333 333 334 333 332 332 332 332 332 329 325 324 327 328 328 328 327 326 325 325 325 324 324 323 322 321 321 320 319 319 319
310 312 313 315 314 315 315 315 316 316 314 314 314 314 314 314 315 316 314 313 314 312 312 315 315 317 322 326 326 328 328 329 328 328 329 328 329 332 333 333 334 336 336 336 336 336 335 335 335 336 336 336 336 336 335 334 334 336 335 334 333 333 333 332 329 328 328 328 328 328 328 327 326 324 325 325 324 324 322 321 321 320 320 319 319 319
310 310 314 316 315 314 314 315 316 315 314 316 315 313 313 315 316 316 316 316 315 313 313 316 317 319 326 329 326 327 328 327 328 329 329 329 331 333 335 336 335 336 335 334 334 334 332 332 334 335 336 336 335 335 335 335 335 335 335 336 334 334 334 333 331 330 329 328 329 328 328 328 326 324 324 324 324 323 321 320 321 320 320 319 319 319
310 311 316 316 314 315 315 315 315 314 317 318 314 311 313 318 319 316 317 317 315 315 314 316 320 321 324 327 327 326 326 328 328 328 329 329 331 334 335 333 332 333 332 331 332 332 329 329 331 333 335 335 336 336 335 335 334 335 335 333 331 332 333 333 331 330 330 330 330 328 327 328 326 324 323 323 324 322 321 320 321 321 320 319 319 319
312 312 317 316 314 316 315 315 315 314 317 317 314 313 315 319 319 316 317 318 318 317 313 313 319 320 319 322 326 325 327 330 329 328 330 330 330 332 332 330 330 330 331 331 331 330 329 329 329 331 333 334 335 335 334 333 331 333 333 330 327 330 332 331 331 330 330 332 330 328 328 327 326 325 323 324 324 322 321 321 321 321 320 319 319 319
315 312 316 317 315 315 315 315 315 314 316 316 316 317 318 320 319 315 315 318 320 320 316 313 314 315 316 319 324 327 329 331 330 329 330 329 330 331 330 329 329 329 330 331 330 328 327 328 329 332 334 334 334 334 333 332 330 330 331 329 327 328 328 328 329 329 331 332 330 330 329 328 328 327 325 324 325 323 322 321 322 321 320 320 320 320
318 315 315 317 316 316 316 315 312 314 316 316 317 317 317 319 317 314 316 316 316 317 317 313 311 316 323 324 325 329 330 331 331 331 330 329 330 330 329 329 328 328 330 331 330 329 328 328 330 332 333 333 333 332 332 332 331 330 330 328 328 329 328 327 327 327 328 330 330 330 331 330 329 328 326 326 326 323 321 322 323 322 321 320 320 321
318 317 316 316 315 315 315 315 314 313 315 314 314 314 315 316 316 317 317 314 312 314 315 314 315 321 328 328 324 327 330 330 330 331 329 328 329 329 329 329 328 328 329 330 330 330 330 330 331 332 332 331 331 331 331 331 330 330 330 329 329 330 329 328 327 326 325 326 327 327 328 330 329 327 326 325 325 323 323 323 323 322 321 320 320 321
317 318 316 316 315 314 314 317 315 314 316 315 313 313 314 316 317 317 316 314 313 313 314 316 320 325 328 328 326 328 329 329 329 329 328 328 328 328 328 329 329 329 329 329 329 328 328 330 330 330 331 330 330 329 330 329 330 330 330 330 330 330 330 329 327 326 323 322 323 324 327 329 329 328 326 322 321 322 322 322 322 321 321 320 320 321
320 319 316 315 315 316 317 318 317 316 316 316 315 316 316 316 315 315 316 319 319 315 314 315 319 324 327 327 329 328 327 328 328 328 328 328 328 327 327 327 327 328 328 328 328 327 327 328 328 329 330 329 329 328 328 328 328 330 330 330 330 330 330 330 329 329 325 320 321 326 329 329 328 328 327 323 320 321 320 319 319 321 321 320 320 321
320 318 317 317 318 318 318 317 317 317 316 315 316 317 317 317 315 316 319 323 320 316 316 316 318 324 327 327 328 328 328 328 327 327 328 329 329 327 327 327 327 327 327 327 327 327 327 325 325 326 328 328 328 328 328 328 328 328 328 329 330 329 329 329 329 330 328 322 321 326 328 328 327 327 328 326 322 320 320 319 318 320 321 320 320 321
317 317 316 317 319 319 320 319 318 318 318 317 317 317 318 318 318 320 322 321 318 315 314 317 321 325 327 327 328 328 329 328 327 328 328 330 330 327 327 327 327 327 327 325 326 326 326 324 323 324 325 326 327 328 328 328 328 328 328 328 329 329 328 328 327 328 329 327 325 327 328 328 328 327 327 326 324 321 319 319 318 319 321 321 321 321
316 318 317 317 319 321 322 323 321 318 318 318 318 319 319 319 319 321 322 320 319 317 317 319 324 327 326 327 328 328 328 327 328 329 328 328 328 326 327 327 327 327 327 326 326 326 326 324 323 323 322 324 326 327 328 328 328 328 329 328 329 329 328 328 327 327 328 328 328 328 327 326 327 326 326 325 324 323 321 321 320 320 320 321 321 321
317 320 318 318 319 318 320 323 320 317 318 319 319 319 320 321 323 321 319 319 321 323 324 324 327 329 328 328 328 327 327 328 329 329 328 328 329 328 328 328 327 328 328 328 328 327 327 326 324 323 322 323 324 325 327 327 326 328 329 329 328 328 328 327 326 326 327 328 328 328 326 325 325 325 325 324 324 323 324 323 322 322 321 320 320 320
318 319 319 320 319 316 316 319 318 317 318 318 319 320 319 321 325 323 319 319 320 322 326 328 329 329 329 328 328 327 326 327 327 326 326 326 326 326 325 326 327 328 327 327 327 327 328 327 327 327 325 325 325 326 326 325 325 326 327 327 327 327 327 326 325 325 325 325 326 327 326 325 325 324 324 324 325 324 325 325 323 322 321 320 320 320
319 318 320 320 318 317 316 316 317 317 317 317 318 320 320 320 323 325 325 325 323 321 325 329 329 329 328 327 326 326 326 326 326 325 325 325 324 324 323 325 326 325 325 325 325 326 326 326 327 328 327 325 325 325 325 326 326 325 326 326 327 327 326 325 325 324 323 323 323 324 324 322 323 324 324 325 325 325 324 325 324 323 321 320 320 321
318 320 323 321 318 317 316 315 316 317 317 317 317 318 319 318 320 323 324 326 328 327 327 328 328 327 326 325 325 325 324 323 323 322 321 322 323 323 323 325 325 323 323 323 323 324 324 323 325 325 325 324 324 324 324 324 325 326 325 326 326 327 326 325 324 324 323 323 323 323 323 322 322 324 325 326 325 325 324 324 324 323 322 321 320 321
319 320 323 322 319 318 316 315 316 316 316 317 318 317 318 318 319 320 320 321 325 327 326 326 326 325 324 323 322 319 317 317 316 315 314 314 315 317 319 321 322 323 323 323 323 322 322 322 322 323 324 323 323 323 323 323 323 324 324 324 325 325 326 325 324 324 323 324 324 324 324 324 323 324 325 324 324 323 323 324 323 324 324 322 321 321
321 319 321 321 319 318 318 317 316 316 317 317 318 318 318 318 318 318 318 317 320 323 323 323 324 324 323 320 316 314 313 312 312 311 310 309 309 310 312 313 315 316 319 320 320 319 318 317 317 319 321 321 322 322 322 322 323 323 324 324 324 325 325 325 325 325 324 324 324 324 323 324 324 324 323 323 323 322 323 323 323 324 323 322 323 323
320 319 318 319 318 316 317 319 318 318 319 319 319 319 318 317 316 317 317 315 317 320 320 320 322 323 320 317 315 313 312 311 310 309 308 307 306 306 307 308 308 309 310 311 312 312 312 312 312 313 315 317 319 320 320 320 320 320 320 321 323 324 324 325 325 325 324 323 323 323 323 323 324 323 323 323 323 323 323 322 322 323 322 322 322 321
320 319 318 319 318 317 318 320 319 319 320 319 319 318 318 317 316 317 317 315 315 317 317 318 319 319 316 314 313 311 311 310 308 306 306 305 305 304 304 305 305 306 306 306 306 307 308 309 310 309 310 311 314 314 315 316 315 315 316 317 320 322 323 323 324 324 323 322 322 322 322 322 323 322 323 323 323 323 323 322 322 322 321 320 320 320
319 318 317 318 318 319 319 320 321 321 319 318 316 316 317 316 316 316 315 314 314 315 316 315 315 313 312 311 310 309 309 308 305 304 305 305 304 304 304 303 303 304 304 304 304 305 306 306 307 307 307 308 308 310 311 312 313 313 313 313 315 317 317 318 319 320 320 321 321 321 321 321 321 322 322 322 322 323 322 322 322 321 321 320 320 320
317 317 317 316 317 318 319 319 320 319 317 316 315 315 315 315 315 315 316 315 313 313 314 313 312 310 310 309 308 307 307 306 305 304 304 304 303 304 304 303 303 303 303 303 304 304 305 305 305 306 306 306 306 307 307 309 311 312 312 312 312 313 314 314 314 314 315 315 316 317 318 318 319 320 321 321 321 321 321 321 322 321 322 322 321 321
316 316 316 315 316 317 318 318 318 318 317 316 315 315 315 315 315 315 316 316 313 312 313 312 311 310 309 308 307 307 307 306 306 305 305 304 303 304 304 304 303 303 302 302 303 303 303 304 304 305 305 304 305 305 305 306 309 311 312 311 312 312 312 313 313 313 313 313 313 313 314 314 315 316 317 318 319 319 320 320 320 320 321 321 320 320
314 316 316 316 316 316 316 317 318 318 318 315 313 312 312 313 314 315 316 315 313 311 311 312 311 310 309 308 308 307 308 308 307 306 305 305 305 305 305 306 305 304 304 303 303 303 303 303 303 303 303 303 304 304 304 305 306 309 310 310 311 311 311 311 311 311 312 312 312 312 312 313 313 314 314 314 315 317 318 318 318 317 318 319 318 318
313 315 316 316 315 315 315 317 317 317 315 313 311 310 309 309 311 313 315 315 313 311 310 311 310 310 310 309 309 308 310 310 308 307 306 305 305 305 305 305 305 305 305 305 304 304 303 303 303 302 302 303 303 303 304 304 304 306 307 308 310 310 310 309 309 309 310 310 310 311 311 312 312 312 312 313 313 314 314 314 315 315 315 316 316 316
312 314 314 315 315 315 315 315 314 314 312 311 310 309 309 309 310 313 316 315 312 310 310 310 310 310 310 310 309 309 309 309 307 306 305 305 305 305 304 304 303 303 303 303 304 304 304 304 304 303 302 302 303 303 303 303 303 304 304 306 308 309 308 308 307 308 308 309 309 310 310 310 311 312 311 312 312 312 312 312 312 312 313 313 313 313
311 311 312 313 313 313 314 314 313 312 310 309 309 308 308 310 312 313 314 312 310 310 311 310 309 309 309 309 308 307 307 306 305 304 304 304 304 304 304 303 303 303 302 302 302 302 303 303 303 302 302 302 302 302 302 302 302 303 303 304 305 307 307 307 306 306 306 307 308 309 309 309 310 311 311 312 312 312 312 312 311 311 312 312 312 312
310 310 310 311 311 311 312 313 313 311 308 307 308 307 307 311 312 311 311 310 309 309 310 309 307 307 307 307 306 306 305 305 305 304 304 303 303 303 303 303 303 302 302 302 301 300 301 301 301 301 301 302 302 302 302 302 302 303 303 303 304 304 305 305 304 303 304 306 307 307 307 308 309 309 310 311 312 312 312 312 312 311 312 312 312 312
310 309 310 310 310 309 311 312 313 311 309 308 309 309 308 310 310 309 308 308 308 308 308 307 307 306 306 305 305 305 305 304 304 304 303 302 302 302 302 302 302 301 301 301 301 300 299 300 300 301 301 301 301 302 302 302 302 302 302 303 303 303 303 303 303 303 303 304 305 305 306 306 307 308 309 309 310 311 311 312 312 312 312 312 311 310
309 309 310 310 310 309 311 311 310 309 308 307 308 308 307 308 308 308 308 307 306 306 306 306 305 305 305 305 304 304 304 303 303 302 302 301 301 301 301 300 300 300 299 300 300 299 298 299 299 299 300 300 300 301 301 301 301 301 301 302 302 302 302 302 302 302 303 303 303 304 304 304 305 306 307 308 308 309 310 311 312 312 312 312 311 311
309 309 309 309 309 309 309 309 307 306 306 306 306 306 306 306 306 307 307 305 305 306 305 305 304 304 304 304 304 303 303 302 302 301 301 300 300 300 300 300 299 299 299 299 299 298 298 299 299 299 299 300 300 300 300 300 301 301 301 301 301 301 301 301 302 302 302 302 303 303 303 303 303 304 305 306 307 308 308 309 310 311 311 311 311 311
307 307 308 308 307 307 307 306 306 306 305 305 305 305 305 304 304 305 305 304 304 304 304 303 303 303 303 303 303 302 301 301 300 300 300 300 300 300 300 300 299 299 299 299 299 298 298 299 299 299 299 299 299 299 299 299 300 300 300 300 300 301 301 301 301 301 301 302 302 303 303 303 302 302 302 303 304 306 307 307 309 310 310 310 311 311
306 306 307 307 307 307 307 306 305 305 305 304 304 303 303 303 303 303 304 303 303 303 302 302 302 302 302 302 302 301 301 300 300 299 299 299 300 300 300 299 299 299 299 299 298 298 298 298 299 299 299 299 299 299 299 299 299 299 299 299 300 300 300 300 300 300 300 301 301 301 302 302 302 302 302 302 302 304 305 307 307 308 309 309 310 310
304 304 306 306 306 306 306 306 304 304 304 304 303 303 303 303 302 302 302 302 302 302 302 302 302 302 301 300 300 300 300 300 300 299 299 299 300 299 299 299 298 298 298 298 298 298 298 298 298 299 299 299 299 299 299 299 298 298 298 298 298 299 299 299 299 299 299 300 300 300 301 301 302 302 301 302 302 302 304 305 306 306 307 308 308 309
303 303 304 306 306 306 305 304 304 304 304 303 303 303 303 302 302 302 302 302 302 301 301 300 301 301 301 300 300 300 300 300 300 299 298 298 299 299 298 298 298 298 298 298 298 298 298 298 298 298 298 299 299 298 298 298 298 298 298 298 298 298 298 298 298 298 298 298 299 299 299 300 300 301 301 301 301 301 302 302 303 304 305 306 307 308
303 303 303 305 305 304 304 304 304 304 304 303 302 302 302 302 302 302 302 301 301 300 300 300 300 300 301 300 300 299 299 299 299 299 298 298 298 298 298 298 297 297 297 297 298 298 298 298 298 298 298 298 298 298 298 298 297 297 297 297 297 297 297 297 297 297 297 298 298 298 298 299 299 300 301 301 301 301 301 301 301 301 302 304 305 306
303 303 303 303 303 303 303 303 303 303 303 302 302 301 301 301 301 301 301 300 300 300 299 299 299 299 299 300 300 299 299 299 298 298 298 298 297 297 297 297 296 297 297 298 298 298 298 298 298 298 298 297 297 297 297 297 297 297 297 297 297 296 296 296 296 296 296 297 297 297 297 298 298 299 300 300 301 301 301 301 301 301 302 302 302 304
Wind_Speed
8 7 8 9 10 12 13 14 15 18 18 13 13 13 13 12 11 14 15 12 18 13 13 14 13 14 13 14 12 12 12 11 10 9 7 10 11 11 12 10 10 10 8 5 11 22 27 26 25 27 28 25 24 27 29 26 21 19 17 15 17 18 15 14 13 12 12 11 8 7 8 10 12 11 11 11 12 13 12 13 12 10 10 10 9 9
9 8 9 12 13 14 14 14 15 17 16 13 12 14 10 11 11 13 15 12 15 9 10 13 13 13 13 13 13 13 15 13 11 9 8 11 13 11 11 11 11 8 4 13 18 19 22 23 24 27 26 24 25 26 29 25 20 19 17 15 16 16 13 12 13 12 11 10 7 7 9 10 10 11 12 12 11 12 12 13 12 11 11 11 10 10
8 9 12 14 13 14 13 10 12 14 13 10 9 11 9 7 10 12 13 9 10 5 7 11 11 11 13 14 11 11 13 12 10 10 10 11 12 10 11 11 9 6 11 14 9 8 15 20 23 26 23 21 23 23 24 22 20 19 17 16 17 17 15 13 14 14 12 9 6 7 9 9 10 12 13 13 12 12 12 12 12 11 11 10 10 11
7 10 15 15 14 14 11 5 7 8 7 8 8 8 7 7 10 7 5 6 9 4 5 7 8 8 11 10 8 14 11 11 11 12 12 11 10 10 10 6 4 11 14 11 7 6 12 19 21 22 21 18 21 22 20 20 21 19 17 19 19 18 17 17 17 15 13 9 8 10 10 9 12 15 14 13 12 12 12 11 11 10 9 8 10 11
10 11 12 15 16 13 8 6 7 6 5 9 10 10 9 10 12 7 6 7 7 7 6 6 7 8 10 9 11 13 7 8 10 11 12 11 10 11 4 7 12 14 12 8 7 7 11 16 17 20 21 18 20 21 19 19 20 18 18 19 20 20 19 20 19 17 14 12 12 14 12 12 14 13 11 12 12 11 11 11 10 10 9 8 9 11
12 8 7 14 13 8 8 9 10 8 6 8 11 13 15 15 15 10 7 7 4 5 6 7 8 7 8 11 13 8 7 8 10 9 13 11 11 11 7 15 14 10 7 7 8 9 12 14 16 19 21 21 21 22 20 19 21 21 20 19 21 22 21 20 18 17 16 14 15 15 13 12 11 9 10 11 11 12 12 11 10 10 9 8 8 11
10 7 6 9 6 6 9 9 10 11 7 8 9 13 17 19 18 14 6 5 5 5 5 8 8 6 6 13 14 9 10 12 11 10 12 11 11 9 10 14 12 7 3 3 5 9 13 15 14 12 14 19 21 23 24 23 25 26 24 22 21 20 19 19 17 17 16 14 15 14 11 10 9 9 10 10 11 13 13 11 11 11 9 8 8 9
8 8 8 9 7 7 9 8 10 12 8 8 10 13 17 18 16 14 11 7 6 5 5 8 9 7 7 10 12 11 13 13 12 10 10 10 7 8 14 15 11 4 3 1 5 10 13 15 16 11 11 16 18 22 25 26 27 29 27 22 20 19 17 16 16 16 13 13 13 11 9 8 8 10 12 11 13 13 12 12 11 11 10 9 9 9
8 9 8 8 10 8 9 10 11 12 10 10 13 13 11 14 14 12 9 7 5 6 6 8 9 7 6 6 9 13 14 13 13 12 11 10 7 16 16 14 8 6 4 4 6 11 14 16 18 16 14 16 18 21 22 23 25 29 29 25 22 20 18 16 16 15 12 11 11 9 7 8 9 12 12 12 13 13 12 12 11 11 11 11 10 10
8 10 10 10 8 8 10 12 13 13 10 11 13 12 9 10 12 10 9 6 4 5 7 8 7 6 7 6 8 11 12 11 12 13 11 9 12 18 13 10 9 8 5 6 6 11 15 19 20 18 16 17 20 21 19 21 24 27 29 28 26 25 22 20 19 17 14 13 14 10 6 8 13 13 12 13 14 13 13 12 12 12 12 11 11 11
7 5 7 8 8 10 11 11 13 14 12 12 11 9 10 10 8 9 8 5 3 5 8 10 9 6 7 6 7 7 9 9 7 8 11 10 13 18 14 12 10 8 6 6 8 11 17 21 21 19 18 19 20 20 20 21 24 26 25 24 26 27 25 23 21 19 17 16 18 14 7 9 14 13 13 15 14 14 13 13 12 12 12 11 11 12
11 5 3 6 9 12 11 9 9 11 12 10 7 6 8 7 6 7 6 5 5 5 8 12 13 10 7 5 3 2 1 6 5 7 7 10 15 16 12 10 10 9 9 9 9 10 16 20 21 20 19 19 18 18 18 20 25 27 25 22 24 25 24 24 22 20 19 17 18 15 9 12 14 13 14 15 15 15 14 13 14 13 12 12 11 11
11 9 7 8 11 13 10 6 6 7 8 9 7 7 7 5 5 6 5 6 6 6 9 12 11 9 5 1 5 8 6 2 8 9 7 9 13 14 12 10 9 9 9 10 10 11 14 14 16 19 19 18 17 18 17 20 26 28 26 25 25 25 25 24 23 22 21 19 18 15 13 14 14 13 15 15 15 16 14 14 14 14 13 12 12 11
8 9 11 10 9 11 10 7 7 7 7 9 7 7 6 5 5 6 6 6 6 7 10 9 6 3 2 4 8 8 6 7 9 8 5 7 9 11 13 11 9 9 9 9 9 10 12 13 15 18 20 19 18 19 18 20 25 27 26 27 25 24 24 25 25 23 21 20 17 16 16 15 14 14 15 15 16 15 14 15 15 14 13 13 12 11
8 8 10 11 8 10 12 12 9 7 8 10 8 8 7 5 4 4 5 5 4 5 6 7 4 2 3 2 5 9 8 9 12 12 9 7 8 10 12 11 10 9 7 6 5 5 5 8 14 19 19 19 21 21 20 20 22 22 23 26 26 23 22 25 26 24 22 20 16 16 18 16 15 15 15 15 15 14 14 15 15 14 14 13 13 12
10 8 9 13 11 12 14 14 13 10 7 7 8 9 7 4 2 2 3 2 1 3 4 3 2 2 4 2 4 9 9 9 12 14 13 11 11 10 10 9 7 6 6 6 4 4 5 2 6 18 20 18 21 23 22 23 22 21 23 25 25 22 23 26 27 25 24 20 16 18 20 17 16 16 15 15 14 14 15 15 14 14 14 14 14 13
8 7 7 13 14 14 13 13 13 11 4 2 6 8 7 7 6 2 2 1 1 3 3 2 1 2 5 4 4 8 9 10 12 13 13 11 10 9 8 7 4 3 3 4 3 5 8 2 6 11 20 18 19 21 22 24 24 23 25 24 22 23 26 27 27 27 25 19 18 21 21 19 17 17 16 16 15 15 15 14 14 14 14 14 14 14
6 6 5 8 14 14 13 12 13 13 7 3 4 4 4 5 6 3 2 1 2 5 5 5 5 4 5 4 7 10 9 11 10 9 10 9 9 8 6 6 5 3 1 3 6 6 8 5 9 8 14 16 17 18 19 20 21 21 22 22 22 26 28 26 27 28 24 19 19 21 21 19 17 16 18 18 17 17 17 16 15 15 15 14 14 14
5 5 6 10 11 12 11 10 11 12 12 8 4 3 4 3 4 4 3 2 3 5 5 6 9 7 4 3 9 14 11 12 11 8 7 8 9 7 5 6 7 6 3 3 5 7 6 10 14 11 12 13 13 14 15 16 16 16 17 20 21 23 24 23 24 26 21 17 19 19 18 19 15 14 18 19 18 18 19 17 15 15 15 14 14 13
3 3 4 8 10 8 9 7 7 7 10 10 5 3 4 3 3 3 2 2 5 5 4 7 8 3 3 3 7 14 15 14 13 9 7 8 7 5 5 5 5 7 6 2 4 8 11 13 15 15 15 12 11 10 12 14 14 14 15 17 18 17 19 19 21 24 19 16 20 20 16 16 15 14 16 18 18 19 19 17 16 16 15 15 14 13
4 2 3 5 8 7 5 6 7 7 7 7 6 7 6 4 3 3 2 3 5 5 4 5 4 3 7 6 3 12 16 16 15 13 11 9 8 6 5 5 5 6 8 8 7 9 11 12 14 17 17 15 14 12 12 13 14 15 16 17 17 16 18 19 22 26 22 18 22 23 18 16 16 14 15 16 16 18 17 16 17 16 16 15 14 13
4 5 4 5 5 6 6 5 6 9 9 8 7 7 7 5 4 4 4 5 5 5 4 3 1 2 3 4 5 11 13 13 14 14 13 13 13 12 10 10 9 9 10 9 8 8 9 11 14 18 18 17 15 14 14 14 14 15 16 17 17 16 16 19 23 25 24 22 23 22 19 18 16 15 16 16 16 16 16 16 17 17 15 15 13 13
1 4 5 6 4 6 9 8 9 11 11 11 8 5 6 7 6 4 3 2 3 5 3 2 1 3 3 4 7 8 9 10 12 11 11 13 13 13 12 12 10 9 10 10 9 8 9 11 14 18 18 16 16 15 14 14 14 14 15 15 15 15 14 16 20 20 22 24 22 19 16 15 14 13 14 16 17 16 15 15 17 15 14 14 13 12
1 2 4 5 4 5 11 12 11 12 12 9 6 4 5 7 5 2 1 0 2 4 2 2 2 2 5 4 6 9 10 9 8 10 11 10 10 11 12 11 10 9 10 11 10 8 8 10 11 15 17 15 15 15 14 14 14 13 13 13 13 14 14 16 18 17 18 22 22 18 14 12 14 15 15 14 14 15 15 15 15 14 13 12 12 11
1 2 2 4 4 2 6 8 7 7 9 6 5 9 11 8 5 1 2 1 2 5 4 2 1 1 2 4 7 11 12 10 6 4 7 7 7 9 11 10 10 9 9 11 10 9 9 10 9 11 14 14 14 14 14 13 13 12 11 11 11 12 12 12 14 13 13 15 17 18 16 14 16 19 14 8 6 11 16 16 15 15 13 12 11 11
2 1 3 4 5 3 2 4 4 2 4 5 9 14 17 14 9 3 3 1 1 4 5 2 1 3 5 8 11 12 11 10 5 5 3 3 4 7 9 9 10 9 9 10 9 7 6 7 8 10 12 13 13 14 13 12 10 9 10 11 10 9 9 8 7 8 10 12 14 17 17 15 16 17 12 8 9 13 15 16 16 15 14 13 11 11
1 2 5 6 7 6 2 3 1 1 2 6 13 16 18 20 15 6 3 2 3 1 3 4 1 5 7 10 11 10 9 7 5 2 3 2 1 3 6 6 7 8 8 8 8 6 5 5 6 7 10 13 14 13 13 12 9 8 8 9 8 7 6 5 5 6 9 10 10 12 12 13 16 18 17 17 19 17 12 13 16 15 14 14 12 12
2 5 6 6 9 9 4 2 2 2 1 6 12 14 16 21 18 9 4 2 0 3 1 2 5 8 8 9 9 10 8 5 5 6 5 6 7 7 6 5 6 9 9 8 8 7 7 6 5 5 9 13 13 12 12 11 9 8 8 8 7 7 6 5 6 7 9 6 5 6 9 14 15 17 20 22 22 19 12 10 14 16 15 14 14 14
4 5 5 7 8 6 2 2 2 3 2 2 7 11 13 16 17 14 11 11 6 2 3 6 12 12 8 8 10 9 8 7 7 7 6 6 6 4 3 4 4 8 9 8 8 7 7 7 5 5 8 11 11 11 12 11 10 10 8 8 8 7 7 7 9 9 9 7 6 7 9 15 17 17 19 20 19 17 10 7 10 15 15 14 14 13
4 2 1 5 7 5 4 3 1 3 5 4 1 5 9 12 14 14 14 15 11 8 10 12 15 12 7 9 12 11 9 9 9 8 7 8 7 5 5 5 4 5 6 6 8 8 7 7 6 6 7 8 8 9 10 10 9 8 8 7 7 8 7 8 10 13 14 12 10 10 11 15 19 17 14 13 14 13 9 6 9 12 13 13 12 11
3 2 1 2 5 5 5 5 2 1 3 4 4 3 3 6 10 11 12 12 9 8 11 13 14 11 6 9 14 14 12 13 13 13 12 12 11 10 10 8 6 5 6 5 6 7 8 8 7 7 9 10 10 10 10 11 9 6 6 6 6 6 6 6 8 11 14 13 10 10 9 11 13 14 13 12 12 13 11 11 11 11 11 11 9 9
6 2 3 2 5 5 6 7 5 3 1 3 5 5 5 4 6 7 8 8 7 4 5 6 8 8 7 10 13 15 15 15 15 14 13 12 13 14 13 11 10 9 8 7 9 10 12 12 11 11 10 9 11 12 10 9 7 5 5 6 7 7 6 7 8 9 10 11 10 9 7 8 10 10 10 10 11 12 12 11 10 9 10 10 9 10
4 2 3 3 5 4 5 6 6 5 3 3 4 4 6 8 7 6 7 9 9 4 3 3 5 7 9 10 11 12 14 14 13 12 11 12 14 14 13 12 13 13 12 13 15 15 15 15 17 20 17 12 12 11 8 7 7 7 5 5 9 10 9 9 10 10 11 11 10 9 9 10 11 10 9 9 11 11 10 9 9 8 9 10 10 9
2 3 1 0 2 3 1 5 6 5 4 1 3 2 4 8 9 8 7 8 8 7 7 8 8 9 10 11 11 12 12 12 11 10 10 10 10 10 11 11 13 15 15 16 17 16 17 18 20 23 25 23 21 18 15 14 12 9 8 6 8 11 11 10 9 10 11 10 8 8 7 7 8 8 8 8 10 10 9 9 9 8 8 10 10 8
5 5 1 2 2 2 1 3 4 3 1 1 3 5 6 8 11 12 10 8 8 8 10 11 11 11 13 13 13 12 12 12 11 10 10 9 7 7 7 9 11 14 14 15 15 16 18 21 23 24 24 26 27 27 25 22 18 15 14 12 10 9 8 9 9 9 10 10 10 10 10 9 8 8 7 7 8 9 7 8 9 8 8 8 8 8
3 3 2 2 3 2 2 2 2 1 3 5 5 6 7 8 10 10 7 6 8 8 9 10 11 12 14 14 13 13 13 13 12 10 11 10 8 7 7 7 9 11 12 13 15 17 20 23 24 23 23 25 28 30 31 28 21 18 18 17 13 11 12 12 11 10 9 9 9 10 11 12 11 12 12 13 12 10 6 6 8 9 10 8 7 8
3 2 1 2 2 2 3 2 1 3 5 5 5 5 6 4 1 3 4 5 7 8 8 9 10 10 12 12 12 12 12 11 10 9 10 11 10 10 9 8 8 9 11 14 16 18 20 23 24 24 24 26 29 31 32 29 23 17 16 17 15 13 13 13 11 10 12 13 12 9 8 9 9 9 11 15 17 15 11 9 9 8 8 9 9 10
3 3 1 1 0 1 1 2 2 3 3 3 7 8 8 7 6 2 5 6 7 9 9 9 10 9 9 10 10 10 9 9 8 8 9 11 12 12 12 11 11 11 12 14 15 16 17 17 18 20 22 24 27 27 27 28 27 22 18 17 16 15 17 18 17 15 15 15 13 11 11 10 8 7 6 7 11 15 16 15 14 12 12 11 12 12
3 4 3 2 1 1 1 4 3 0 1 3 7 9 9 8 8 5 4 7 8 12 13 11 11 10 9 10 9 7 5 6 7 7 8 10 11 11 12 12 13 13 12 12 12 13 14 13 13 16 19 20 21 22 22 23 25 24 23 21 18 19 20 20 19 17 16 16 15 13 13 12 10 7 6 6 5 7 10 10 10 12 14 14 14 16
3 2 2 4 3 2 2 1 1 3 5 6 5 6 8 8 7 4 4 5 5 10 13 12 12 11 9 9 7 3 3 6 6 6 8 9 10 11 12 12 13 14 13 12 10 11 11 10 9 11 15 15 14 15 17 18 19 19 20 20 18 19 19 19 18 17 16 15 13 12 11 10 9 7 6 6 7 4 1 2 3 4 6 9 11 13
1 2 2 4 2 1 2 2 2 3 4 8 7 5 7 7 5 1 3 2 2 5 9 10 11 10 8 7 6 6 7 9 10 9 9 9 9 10 11 12 12 13 12 12 11 8 7 9 9 9 10 10 9 10 11 13 14 13 13 15 16 16 15 15 16 16 15 14 12 13 14 12 11 10 8 6 5 5 4 4 5 4 5 7 8 8
3 3 2 2 3 2 1 2 3 4 2 8 7 4 5 4 0 2 2 3 6 7 8 12 14 12 11 11 9 8 9 11 11 11 10 9 8 9 9 10 11 12 11 11 12 11 9 8 10 9 9 8 8 8 8 9 9 9 9 11 13 13 12 13 15 15 14 13 12 13 14 13 13 12 11 9 8 8 8 7 6 7 7 8 9 9
5 4 2 2 3 3 1 2 3 3 3 6 4 3 4 3 3 3 2 7 10 9 9 10 11 10 10 11 10 10 10 10 10 10 9 8 8 8 9 9 10 10 10 10 11 11 10 9 9 9 8 8 8 8 8 8 8 8 8 9 10 10 10 10 12 12 12 12 12 12 13 13 13 12 11 10 10 10 11 10 8 8 9 10 10 11
6 5 2 4 4 3 1 3 3 3 5 7 5 5 7 7 3 3 6 8 8 8 8 8 8 9 9 10 9 9 9 8 8 7 7 6 6 6 7 8 9 9 9 8 9 10 9 8 8 8 7 8 8 9 9 9 9 9 9 9 10 11 11 11 11 11 12 11 11 12 12 12 13 13 12 12 12 12 12 12 12 12 11 11 11 12
6 6 5 5 5 5 5 5 5 5 6 8 9 8 10 11 9 7 9 8 7 7 7 6 6 8 8 8 8 7 7 6 6 5 5 5 5 5 6 7 8 8 7 7 8 9 8 7 7 7 7 8 9 9 9 10 10 10 11 11 11 12 12 12 12 12 12 12 12 12 13 13 14 14 14 15 15 14 14 14 14 14 13 12 13 14
5 5 6 6 7 9 9 8 7 7 7 8 8 8 9 11 10 9 9 9 8 7 6 6 6 6 5 5 6 6 5 5 4 4 4 4 4 5 5 6 7 6 6 7 7 7 7 7 6 6 7 8 9 9 9 9 10 10 11 12 12 13 13 13 14 14 14 14 14 14 14 15 16 16 17 17 17 17 17 16 15 15 15 16 17 16
4 4 5 5 5 4 5 7 8 8 7 7 8 8 9 9 9 7 7 8 8 7 7 7 6 5 5 5 5 5 5 4 3 3 3 3 3 4 5 6 6 5 5 5 5 5 6 6 6 6 7 7 7 7 8 9 9 10 11 12 13 13 14 14 15 16 16 15 15 15 15 16 17 17 17 18 18 18 18 18 17 17 17 18 19 19
3 2 3 5 3 4 7 8 8 8 8 8 7 6 7 8 8 8 7 7 7 7 6 5 5 5 5 5 4 3 4 4 3 3 2 2 3 4 5 6 5 5 5 5 5 5 6 6 6 7 7 7 7 6 6 7 8 8 9 10 11 12 12 13 14 15 16 17 17 17 17 17 18 19 19 18 18 19 19 19 18 18 18 18 17 17
3 3 3 6 6 6 8 9 8 8 8 8 8 8 7 7 8 7 7 7 7 6 5 5 5 6 5 4 3 2 2 4 4 4 4 3 4 5 6 6 6 6 7 7 7 6 6 6 5 6 7 7 7 7 7 8 8 8 8 9 10 10 11 12 14 14 14 15 16 17 18 18 18 18 19 19 20 21 21 21 22 21 21 19 18 16
3 3 4 4 5 5 6 7 6 5 6 7 8 8 7 7 6 6 6 6 6 5 4 3 3 4 6 7 6 4 3 4 5 4 4 4 5 5 5 6 7 8 8 8 7 7 6 6 7 8 9 9 9 9 10 10 11 11 12 12 12 12 12 14 15 16 15 14 14 14 16 18 18 17 18 19 19 20 21 22 23 24 23 23 22 20
5 6 5 4 4 6 7 6 4 4 6 7 6 6 5 5 4 4 5 5 5 4 4 4 4 4 4 5 6 4 3 3 4 4 4 4 5 5 6 7 7 8 7 7 8 8 9 10 10 10 11 11 11 11 12 12 13 14 15 15 15 15 15 15 15 16 16 16 16 15 16 18 18 18 19 19 19 20 20 20 20 22 23 24 24 23
Wind_Direction
204 213 217 220 225 223 222 229 240 240 246 275 299 276 228 223 240 232 240 200 173 190 203 210 217 212 227 238 215 169 181 221 215 214 201 182 199 193 188 198 205 218 209 148 85 82 86 88 98 109 110 111 113 120 135 139 132 139 147 133 119 115 125 138 134 132 129 115 116 138 139 118 108 107 102 96 97 99 101 103 102 100 100 105 115 120
209 223 226 224 229 234 227 223 239 253 262 278 294 288 244 216 235 231 235 206 169 189 200 195 222 226 221 229 223 187 181 206 211 212 219 204 208 205 193 200 206 206 116 65 61 80 98 100 107 121 128 125 121 129 140 136 130 140 144 136 129 127 134 142 133 130 125 120 142 150 127 121 122 119 110 98 97 99 97 100 104 106 106 102 103 107
211 230 234 232 231 237 239 227 234 248 262 275 273 280 275 231 231 226 231 208 158 184 206 189 215 235 235 229 224 214 192 186 194 209 231 221 209 210 203 205 203 150 87 80 84 105 109 107 115 132 141 129 120 132 140 134 134 144 146 142 144 144 147 149 140 138 138 137 154 141 122 129 124 110 108 106 107 108 105 104 104 107 113 115 116 114
207 226 228 234 234 230 238 253 262 258 253 265 261 257 274 261 241 219 187 146 127 163 228 223 230 237 242 233 233 240 208 167 190 211 229 224 202 213 222 217 144 95 87 98 124 132 118 115 123 139 146 132 124 135 146 145 144 147 150 151 154 154 153 154 150 148 147 136 127 124 118 118 111 102 104 110 111 110 108 106 105 108 112 114 116 110
227 226 213 223 230 222 221 233 250 266 251 247 251 252 262 264 254 230 163 147 143 169 200 238 253 244 234 225 234 239 185 160 201 213 228 219 197 213 206 76 80 90 99 127 153 150 127 119 128 145 148 140 135 137 143 153 154 152 150 153 159 159 154 153 153 152 149 135 124 121 114 109 110 112 118 119 117 117 113 110 112 112 108 109 107 102
239 242 218 221 215 195 213 229 227 236 257 250 239 243 258 268 271 259 181 162 191 210 193 209 242 247 227 228 233 214 160 194 215 216 230 219 200 202 134 92 91 99 122 158 160 135 119 120 133 149 151 145 141 137 140 156 164 161 157 156 161 162 157 154 153 152 148 139 127 119 113 117 125 137 138 130 126 124 120 119 120 115 108 107 98 92
244 234 223 228 192 173 220 232 227 224 236 253 233 226 244 260 273 276 243 190 211 232 207 204 228 246 226 228 227 196 183 206 209 216 230 220 203 182 120 98 99 116 171 165 124 112 117 127 136 155 152 142 145 144 146 159 167 167 165 160 159 162 161 155 151 151 144 134 126 118 120 139 155 150 136 128 125 121 121 121 116 114 108 99 93 94
236 210 199 228 216 209 230 231 224 222 224 246 241 222 223 238 255 265 267 255 224 226 229 214 222 240 238 223 212 202 201 201 202 212 228 224 198 116 93 91 101 160 222 145 121 122 129 136 142 159 150 141 153 156 157 163 166 166 165 160 159 161 158 152 149 145 134 125 125 126 142 170 168 138 128 127 124 122 125 126 121 120 117 109 105 104
211 203 187 216 226 223 234 235 224 219 224 239 252 253 229 221 234 242 254 258 230 230 240 228 225 236 249 220 201 213 211 200 197 197 217 224 125 86 84 94 123 196 203 187 156 128 134 142 146 159 155 150 163 166 164 163 161 163 163 162 162 158 153 152 150 144 134 127 131 146 176 179 147 134 138 136 132 133 135 133 127 121 116 113 107 103
210 215 209 207 219 235 231 229 225 217 226 238 248 271 268 234 227 229 241 242 222 238 242 235 233 247 257 213 195 219 208 199 204 188 198 207 124 104 112 132 169 195 180 182 158 126 136 144 149 158 152 153 169 173 164 156 158 162 162 163 161 156 155 159 159 155 150 145 148 165 201 163 140 147 155 145 140 143 138 131 125 121 120 115 107 102
227 221 239 223 212 232 233 229 229 218 219 232 234 244 252 243 228 222 235 238 221 232 239 240 226 232 263 215 190 224 199 189 202 174 184 186 130 121 141 163 169 172 170 163 143 132 134 140 151 155 149 155 170 174 163 154 159 162 161 161 156 155 159 162 164 162 159 160 158 162 189 167 156 166 161 150 149 147 141 137 134 133 129 119 109 104
234 211 235 245 228 232 234 234 242 226 211 217 224 231 234 228 223 228 225 223 235 228 233 241 219 204 242 232 172 7 187 176 135 116 162 157 124 123 148 159 146 152 167 156 147 140 130 139 153 153 154 160 163 167 163 158 163 164 164 160 155 158 163 163 165 163 161 165 160 157 173 175 169 171 163 158 157 151 148 146 139 137 130 121 117 111
233 224 208 221 234 239 237 226 231 234 220 212 209 224 235 216 211 231 222 215 237 233 227 240 230 212 229 182 93 57 34 128 133 132 166 156 133 134 147 147 140 152 162 153 152 145 131 141 155 154 158 160 160 165 163 161 165 168 167 164 163 165 165 166 166 163 163 166 162 157 166 174 174 173 170 165 160 156 154 150 142 139 135 127 124 118
219 230 219 212 220 227 236 233 208 204 216 224 222 219 224 218 213 224 227 223 231 231 224 226 230 213 174 114 111 104 69 60 88 107 151 164 147 140 141 143 142 148 154 151 150 144 137 147 156 155 157 161 168 169 163 163 168 169 169 167 168 169 168 168 167 165 167 168 165 160 162 172 176 175 175 169 162 159 155 152 147 143 140 135 130 127
217 225 215 209 205 198 213 236 239 219 206 213 228 237 230 221 229 228 230 241 244 247 240 221 214 158 157 165 110 112 94 73 74 76 82 96 100 110 123 129 133 141 138 119 110 106 113 150 159 152 153 163 171 170 165 167 170 169 169 167 166 171 173 169 168 170 170 171 172 164 162 171 178 178 176 169 164 160 155 153 149 146 143 139 137 137
231 235 203 202 207 197 201 226 250 251 226 209 214 232 237 208 204 239 234 250 309 307 289 233 244 78 138 178 93 101 95 80 76 77 82 82 82 90 100 106 115 124 115 104 110 104 72 336 187 154 153 165 170 172 171 169 173 174 173 169 162 168 178 173 172 174 171 173 176 165 163 171 177 178 174 168 165 159 155 154 151 147 146 145 144 143
237 245 204 195 202 207 206 210 233 242 233 234 224 226 230 205 196 207 218 203 132 257 252 172 105 81 137 159 143 136 116 84 66 67 77 81 86 88 85 84 66 47 106 127 113 96 98 341 272 168 158 166 169 175 176 171 174 175 173 169 159 164 175 172 173 174 172 174 173 164 166 173 176 177 175 169 164 158 157 156 152 149 148 150 150 148
233 271 294 236 212 206 208 210 224 230 214 207 235 257 280 229 216 211 181 171 257 251 233 179 178 185 189 192 164 154 128 92 78 78 87 89 94 93 89 96 84 43 358 103 94 83 107 171 245 200 159 160 164 174 177 171 172 173 170 167 167 171 168 163 167 170 169 172 166 159 165 172 175 175 172 168 163 160 157 152 151 152 151 153 154 153
215 259 292 274 242 200 196 217 226 225 224 224 230 301 321 264 234 225 192 179 224 246 248 210 202 200 211 201 155 152 136 107 101 104 106 109 114 117 124 130 120 111 91 84 121 127 146 198 214 186 149 146 154 165 172 167 163 164 161 159 169 175 167 166 172 166 161 166 161 156 161 170 174 169 165 166 165 161 156 152 151 152 154 155 157 160
190 235 240 258 259 208 184 221 233 221 229 232 225 231 233 227 245 247 237 247 225 228 243 227 214 181 31 326 183 157 140 130 128 128 126 124 124 129 136 135 123 116 117 166 188 161 171 196 188 155 135 128 122 129 153 159 149 142 144 148 156 160 158 169 180 172 165 166 163 160 161 169 174 169 164 165 165 161 158 156 154 152 156 160 163 166
171 181 232 243 249 235 204 215 229 231 234 230 224 225 219 217 243 231 209 251 253 245 248 244 231 80 35 341 205 143 133 138 142 142 144 143 141 146 148 146 150 154 161 180 186 163 161 166 153 139 132 127 122 121 135 148 143 136 139 144 147 150 151 157 168 173 175 176 174 170 169 174 178 176 170 165 162 160 158 161 161 156 158 164 167 169
173 161 215 243 234 243 248 240 247 252 249 242 230 228 228 221 223 227 221 230 254 264 259 251 226 78 34 8 75 117 131 137 138 142 144 144 152 161 161 164 172 169 159 155 153 148 145 142 139 136 131 130 134 134 133 139 140 137 138 143 148 153 155 155 162 172 179 182 180 177 175 179 181 178 169 163 163 163 160 163 165 161 162 166 168 172
9 159 201 236 235 258 276 300 317 302 279 263 252 242 244 240 233 232 231 239 265 268 274 258 184 102 69 63 85 105 122 124 132 140 137 138 148 150 144 146 154 148 135 132 136 138 137 138 138 133 128 130 135 134 134 138 136 132 135 142 149 154 159 164 167 173 181 185 185 181 176 179 184 177 166 162 166 166 162 163 165 163 166 169 170 173
13 178 197 225 226 278 306 311 308 313 313 294 275 277 265 256 259 251 145 92 281 274 299 293 234 97 75 89 103 99 98 101 117 135 139 141 139 137 135 133 133 133 132 135 134 129 128 131 132 128 126 129 132 133 136 135 132 133 137 143 153 160 166 174 175 174 178 185 188 184 174 175 185 183 173 165 166 167 165 167 167 166 167 170 173 179
260 218 214 238 223 238 319 306 278 314 341 337 321 315 299 273 247 150 98 117 267 274 262 222 158 75 83 99 94 84 82 79 59 79 130 139 135 139 139 133 133 138 136 134 133 133 133 131 129 129 128 128 130 132 129 126 129 138 145 147 154 161 168 180 182 176 173 176 181 182 174 170 183 188 175 151 161 174 172 172 173 173 173 173 175 182
208 190 193 236 246 224 236 258 252 348 2 343 342 338 329 307 269 211 103 133 238 295 292 287 140 163 127 93 82 71 69 81 64 3 29 115 149 147 134 129 136 136 125 120 119 118 125 130 131 134 133 128 126 125 121 120 125 130 133 140 149 161 170 178 170 164 170 171 178 188 180 166 178 183 161 141 177 184 175 175 178 175 176 178 178 183
239 221 202 219 245 255 237 175 189 347 8 0 356 356 354 341 315 268 194 188 156 103 330 326 172 151 111 83 85 87 78 89 108 53 1 359 46 93 86 94 113 114 108 105 98 94 100 105 112 122 125 120 116 113 111 114 118 118 125 135 145 159 167 151 126 156 184 186 186 193 179 163 176 184 175 173 184 188 180 177 177 175 177 181 183 185
270 240 214 230 248 259 267 155 158 257 336 25 12 1 360 360 350 328 299 314 144 164 245 21 105 111 87 66 77 96 98 86 78 69 49 32 30 30 25 38 85 96 97 93 83 80 87 89 87 89 96 103 108 112 113 109 105 110 122 133 138 154 173 165 155 183 209 213 191 176 160 158 170 187 191 185 184 186 182 167 169 174 178 181 180 181
240 243 209 225 238 238 229 140 159 208 219 38 32 15 1 9 16 11 5 2 0 141 142 112 110 109 103 86 76 81 93 92 85 82 74 66 63 56 26 20 64 89 95 99 92 82 82 85 85 82 90 100 106 111 116 114 114 124 132 135 137 149 175 173 161 174 199 207 194 185 172 162 162 174 188 187 184 182 164 136 162 174 180 188 187 182
216 242 214 233 226 199 165 134 128 202 209 215 137 36 6 10 28 32 27 19 24 80 109 114 108 101 105 100 85 78 78 75 77 78 63 54 53 59 49 18 21 73 84 94 98 98 96 88 78 75 81 91 99 108 115 114 115 124 124 124 133 138 153 162 161 172 183 184 177 172 168 160 154 155 161 169 180 177 156 157 188 185 186 194 195 195
291 242 56 277 235 199 181 163 135 166 204 206 184 138 57 28 32 36 38 29 27 69 96 108 108 103 109 95 79 70 63 57 55 53 48 46 44 42 41 21 6 43 63 63 72 86 93 88 79 78 71 60 59 66 75 78 77 84 90 92 105 114 123 135 146 162 169 166 156 150 150 143 139 144 146 149 166 171 168 184 195 192 192 193 190 192
318 236 156 241 247 211 203 200 174 147 199 237 207 176 143 97 63 51 53 40 21 45 92 100 101 106 109 89 71 60 57 56 54 51 48 49 48 46 45 36 26 34 45 54 56 57 59 52 41 45 57 69 69 59 59 72 81 79 85 97 96 84 78 89 96 105 119 125 122 119 125 118 116 136 147 140 146 157 165 176 179 178 179 173 164 163
318 267 174 216 247 224 201 196 175 166 202 248 247 202 154 132 117 93 67 41 24 36 103 88 91 109 107 92 78 70 68 65 59 54 49 47 47 45 43 43 44 42 40 43 47 45 42 40 33 27 26 43 65 65 65 79 79 64 61 104 117 106 91 84 85 86 93 104 110 111 119 121 119 129 135 124 127 139 151 164 169 171 174 171 169 168
258 273 285 59 284 274 176 143 162 198 214 239 346 13 125 138 127 104 84 62 44 49 65 68 81 98 92 84 83 80 78 77 72 67 62 58 57 49 37 33 43 47 42 37 36 36 35 34 33 28 22 22 27 33 39 42 42 47 46 56 99 116 122 122 121 120 118 120 120 114 117 121 123 132 138 137 137 136 141 155 160 165 177 182 184 186
205 222 224 84 66 334 3 130 167 225 228 91 29 42 78 107 108 99 92 86 79 74 73 73 78 84 82 84 89 90 92 95 91 83 75 71 74 73 52 32 35 43 45 39 33 31 31 29 29 28 23 20 20 21 24 21 18 28 32 28 44 74 90 96 100 106 113 125 134 136 140 144 148 155 156 151 147 144 152 167 167 165 169 173 177 181
190 194 191 135 117 132 213 208 193 160 110 91 69 70 85 102 110 103 87 86 98 97 91 86 84 85 88 91 94 98 104 105 100 96 95 92 86 85 78 56 43 44 44 42 35 30 29 28 27 24 21 21 23 23 19 13 12 21 23 18 29 52 62 66 69 69 69 79 97 114 129 137 147 155 154 152 155 156 163 171 167 169 172 169 169 172
154 141 196 190 156 185 217 221 139 150 131 96 69 62 63 58 91 122 110 110 112 108 108 110 105 99 101 102 103 108 110 105 98 98 110 115 111 105 101 92 82 73 63 58 52 45 38 32 28 25 22 22 24 22 16 12 12 21 23 17 21 40 55 56 52 52 49 46 48 61 84 103 115 127 135 144 151 150 150 154 153 157 167 166 162 164
153 124 135 197 163 352 261 241 221 188 165 55 26 14 15 10 355 26 118 125 128 128 126 123 117 113 113 116 120 122 112 97 93 97 105 113 116 117 118 115 109 105 97 85 74 67 61 53 45 40 33 26 24 21 17 15 16 16 17 15 18 31 41 37 28 28 33 28 22 26 36 45 60 83 102 120 136 143 150 159 158 157 163 167 168 169
195 134 138 193 212 79 233 262 277 151 73 26 12 353 350 1 348 341 116 122 133 139 139 137 138 141 143 143 148 154 130 102 104 105 96 95 95 97 102 106 104 101 99 97 97 94 82 71 66 58 45 34 27 22 19 20 21 16 8 7 20 33 33 26 19 16 17 14 12 15 15 12 17 31 36 23 48 114 142 154 158 163 170 175 177 176
226 154 176 225 224 147 152 266 1 71 45 22 10 342 344 352 332 293 148 122 132 143 143 144 144 145 150 152 152 141 96 104 111 103 89 86 83 77 78 85 87 86 82 79 91 109 101 80 73 67 54 43 33 25 20 19 22 20 6 0 17 33 25 14 11 8 4 4 3 0 358 356 357 358 346 342 355 16 129 170 177 178 185 193 195 190
336 345 280 252 245 135 115 100 100 101 26 347 342 345 340 333 317 228 145 102 56 119 129 117 99 92 97 105 93 70 82 103 110 104 97 94 88 79 75 77 78 78 78 73 66 69 76 68 61 58 56 51 37 28 25 18 17 18 5 358 10 24 18 5 2 359 354 354 352 351 353 354 353 351 341 325 323 314 286 250 235 245 238 223 228 230
356 341 307 290 305 312 140 125 112 104 10 319 322 355 343 321 346 132 138 73 56 73 99 92 80 77 77 78 79 85 94 103 104 99 91 84 79 74 70 68 69 68 68 70 62 44 34 45 48 39 35 39 34 25 24 19 11 8 6 1 2 7 4 354 349 344 341 343 344 343 345 343 341 341 336 325 317 311 306 288 249 239 236 227 235 253
13 337 336 33 357 321 343 106 104 86 17 332 333 28 19 26 124 137 95 75 69 67 77 80 78 85 88 82 79 83 85 86 88 84 78 72 67 66 64 60 60 58 51 50 51 38 23 26 34 24 15 17 18 14 12 10 3 359 358 352 347 348 347 339 333 330 329 330 329 326 326 324 321 317 311 305 301 297 295 291 272 251 240 231 231 242
15 345 10 49 5 325 26 71 80 76 39 21 37 62 47 41 70 110 90 82 78 75 73 70 67 74 84 86 84 85 87 87 83 80 80 79 67 60 64 62 56 52 46 43 42 33 19 18 19 9 5 10 8 4 1 357 351 348 344 338 337 336 333 326 321 318 318 316 312 309 307 305 303 302 300 297 291 285 279 275 269 260 247 236 231 234
39 40 64 63 44 46 78 97 99 87 64 48 50 59 57 48 48 69 85 85 82 81 77 75 77 78 85 95 94 89 87 87 85 79 72 76 73 59 58 61 54 45 41 41 39 29 17 14 11 3 3 5 359 354 352 347 342 338 334 332 333 330 326 324 321 317 315 313 310 307 304 299 296 293 292 291 289 286 280 273 265 257 249 246 243 237
66 71 76 87 90 82 85 102 103 89 79 69 59 57 62 59 55 65 80 81 79 85 83 78 80 76 76 93 99 93 86 80 82 84 76 72 75 68 63 63 55 44 36 31 30 23 9 3 5 5 3 357 352 349 346 342 339 335 331 331 332 331 329 328 325 322 320 315 309 305 301 298 294 290 286 285 284 281 278 273 267 259 252 248 247 243
65 67 82 108 132 108 96 109 110 104 101 94 82 71 68 67 63 66 78 79 77 82 82 81 88 83 67 68 79 90 97 91 79 85 98 92 83 80 77 63 45 36 31 23 18 15 2 352 353 357 352 346 343 341 338 336 332 328 327 328 329 328 328 328 326 324 321 316 311 307 303 299 296 296 292 285 280 277 273 269 265 261 253 244 241 243
16 351 75 95 99 97 109 116 117 118 116 109 105 99 88 83 78 74 80 90 92 94 94 94 99 95 77 64 63 80 103 104 80 46 46 73 85 79 64 46 30 24 19 15 12 3 350 342 343 345 339 334 331 328 326 325 322 318 320 323 323 322 320 321 322 321 319 317 313 308 303 298 296 299 299 292 285 280 275 271 268 266 263 259 253 248
299 308 75 93 95 102 119 126 127 127 119 109 104 102 101 105 110 112 121 124 114 109 116 121 114 114 118 108 78 53 79 94 73 33 13 30 56 52 36 21 16 13 5 359 354 346 337 332 334 333 327 324 324 323 323 321 316 312 310 309 311 313 313 312 312 310 307 307 308 307 304 300 295 292 291 288 285 281 277 275 274 272 270 271 270 263
349 17 66 109 124 117 121 128 128 125 119 108 101 100 101 105 111 115 118 110 92 80 87 103 106 116 124 110 82 34 21 68 63 29 11 25 37 34 23 15 9 358 348 343 339 332 329 331 334 333 332 333 334 331 329 326 323 323 322 317 312 310 309 309 310 308 303 299 299 299 299 298 297 294 290 286 282 279 276 273 272 271 268 266 268 267
28 34 49 66 88 103 113 113 96 94 108 110 105 103 105 102 99 100 96 88 82 73 55 36 28 21 38 71 74 49 22 44 50 31 18 21 22 20 19 11 351 332 329 338 339 336 338 340 344 345 342 340 339 336 333 331 329 329 329 327 322 315 309 305 304 305 305 303 301 302 303 300 298 298 298 296 292 288 285 282 277 271 265 261 261 260